NOAA 16 DEB, 41351

Orbit data source: Space-Track

NOAA 16 DEB, 41351 is space debris in SSO originally from a launch on Thu, 21 Sep 2000 UTC launched from the Air Force Western Test Range (AFWTR). Debris objects in space refer to the collection of defunct objects orbiting the Earth. Examples of debris include non-operational satellites, rocket bodies, and fragments generated from explosions, collisions, or faulty payload assembly.

Loading next visibility...
Identifier
41351, 2000-055HU
Orbit
SSO
Country
Flag of USUS
Related business
Manufacturer
Unknown
Mission
Spacecraft
Bus & Motor
Unknown
Mass
Unknown
Launch date (UTC)
2000-09-21 (26 years ago)
Launch vehicle
Unknown
Launch site
Air Force Western Test Range (AFWTR)
Object type
Payload
Rocket body
Debris
Shape & HBR
Unknown shape, 0.1 m
Radar Cross Section
Small (<0.1 m²)

Expand to show TLE details & history
Last TLE update: 12 hours ago

TLE from 12 hours ago
0 NOAA 16 DEB
1 41351U 00055HU  26150.03174722  .00003904  00000-0  16552-2 0  9991
2 41351  98.6167 184.3749 0009653 191.9916 168.1036 14.25925427535805
Epoch: 2026-05-30T00:45Z
TLE epoch observation values (Epoch: 2026-05-30T00:45:42.959Z)
Latitude
-0.00001°
Longitude
-74.6077°
Altitude
815.095 km
Speed
7.442 km/s
True Right ascension
12h 17m 29s
True Declination
0° 00' 00"
Sunlit
Object was in daylight at epoch
Visualization orbit readout
Latitude
Unknown
Longitude
Unknown
Altitude
Unknown
Speed
Unknown
Apparent Right ascension
Unknown
Apparent Declination
Unknown
Sunlit
N/A
Visualization observer readout
Local Sidereal Time
21:52:01
Azimuth
Unknown
Elevation
Unknown
Doppler factor
Unknown
Orbital elements
Apogee altitude
809.461 km
Perigee altitude
795.598 km
Semi-major axis
7,180.666 km
Eccentricity
0.00097
Inclination
98.6167°
RAAN
184.3749°
Arg. of periapsis
191.9916°
True anomaly
168.12638°
Mean anomaly
168.1036°
Eccentric anomaly
168.11499°
Mean motion
3.56694 °/min
Orbital period
100.93 mins
BSTAR
0.0016552
Loading maneuver chart data...
Computing Atmospheric mass density...
Loading historical data...
Loading historical data...
Loading historical data...
Loading historical data...
Loading historical data...
Loading historical data...
Loading historical data...

Documentation

Showing up to 5 results
|